Regional Weather Roundup
Issued by NWS

Home | Current Version | Previous Version | Text Only | Print | Product List | Glossary On
Versions: 1 2 3 4 5 6 7 8 9 10 11 12 13 14 15 16 17 18 19 20 21 22 23 24 25 26 27 28 29 30 31 32 33 34 35 36 37 38 39 40 41 42 43 44 45 46 47 48 49 50
787
ASUS44 KJAN 182210
RWRMS

MISSISSIPPI HOURLY WEATHER ROUNDUP
NATIONAL WEATHER SERVICE JACKSON MS
500 PM CDT THU SEP 18 2014

NOTE: "FAIR: INDICATES FEW OR NO CLOUDS BELOW 12,000 FEET WITH NO
SIGNIFICANT WEATHER AND/OR OBSTRUCTIONS TO VISIBILITY.

MSZ001>002-007>008-010>013-018>021-025>028-034>036-182300-
NORTHWEST MISSISSIPPI

CITY           SKY/WX    TMP DP  RH WIND       PRES   REMARKS
CLARKSDALE     FAIR      72  70  94 CALM      29.94R
CLEVELAND      LGT RAIN  73  72  97 E12       29.91R
GREENWOOD      CLOUDY    76  68  76 CALM      29.91R
GREENVILLE     CLOUDY    76  65  68 SE7       29.90R THUNDER
GRENADA        MOCLDY    79  70  73 SE9G20    29.90R
OLIVE BRANCH   PTSUNNY   77  72  83 NE10      29.92S
OXFORD         FAIR      79  68  69 E3        29.92R
TUNICA         MOCLDY    82  70  65 N7        29.90S
$$

MSZ003>006-009-014>017-022>024-029>033-037>039-182300-
NORTHEAST MISSISSIPPI

CITY           SKY/WX    TMP DP  RH WIND       PRES   REMARKS
COLUMBUS AFB   MOSUNNY   85  65  52 E3        29.89R
CORINTH        FAIR      75  64  69 NE8       29.93S
GOLDN TRIANGLE MOSUNNY   84  66  54 S7        29.90R
STARKVILLE     FAIR      81  68  65 CALM      29.90R
TUPELO         SUNNY     85  66  53 VRB6      29.90R
$$

MSZ040-058-182300-
CENTRAL MISSISSIPPI

CITY           SKY/WX    TMP DP  RH WIND       PRES   REMARKS
JACKSON INTL   CLOUDY    83  76  79 S5        29.87F THUNDER HX  91
JACKSON HAWKNS PTSUNNY   80  75  84 N3        29.88S
MERIDIAN KEY   CLOUDY    81  70  69 N5        29.90F
MERIDIAN NAS   TSTM      74  70  87 NW5       29.91R
RAYMOND        TSTM      75  72  88 SW7G17    29.89S
VICKSBURG      CLOUDY    86  69  56 S6        29.87F HX  90
$$

MSZ059>079-182300-
SOUTH MISSISSIPPI

CITY           SKY/WX    TMP DP  RH WIND       PRES   REMARKS
BROOKHAVEN     FAIR      82  73  74 CALM      29.90F
COLUMBIA       FAIR      84  75  74 CALM      29.87S HX  92
HATTIESBURG    PTSUNNY   83  71  67 SE15G21   29.89S THUNDER
MCCOMB         CLOUDY    83  71  67 CALM      29.89F
NATCHEZ        CLOUDY    82  73  74 S3        29.89F
PINE BELT      PTSUNNY  N/A N/A N/A SE6       29.89F
$$

MSZ080>082-182300-
COASTAL MISSISSIPPI

CITY           SKY/WX    TMP DP  RH WIND       PRES   REMARKS
BAY ST LOUIS   MOSUNNY   84  72  65 SE3       29.87F
BILOXI         CLOUDY    85  73  67 S5        29.88S HX  92
PASCAGOULA     CLOUDY    84  73  69 SE3       29.88S HX  90
GULFPORT       CLOUDY    85  74  69 VRB3      29.87S HX  92
$$



USA.gov is the U.S. government's official web portal to all federal, state and local government web resources and services.